CW1490 Weather Reports


Display with metric or nautical units.
time (UTC)temp
F
wind
direction
speed
MPH
gust
MPH
rain 1hr
in
rain 24hr
in
rain mn
in
humidity
%
barometer
mb
20170323200641 37 354 2.0 10.0 0.00 0.00 0.00 29 1030.5
20170323195137 36 14 3.0 8.0 0.00 0.00 0.00 30 1030.6
20170323193632 36 344 3.0 16.0 0.00 0.00 0.00 30 1030.8
20170323192129 36 359 7.0 13.0 0.00 0.00 0.00 27 1030.7
20170323190621 35 36 6.0 15.0 0.00 0.00 0.00 31 1030.7
20170323185122 35 276 4.0 15.0 0.00 0.00 0.00 28 1031.1
20170323183621 35 17 4.0 12.0 0.00 0.00 0.00 31 1031.1
20170323182109 34 350 7.0 15.0 0.00 0.00 0.00 27 1031.2
20170323180607 33 135 4.0 13.0 0.00 0.00 0.00 29 1031.2
20170323175101 33 13 9.0 15.0 0.00 0.00 0.00 30 1031.3
20170323173557 33 282 3.0 11.0 0.00 0.00 0.00 29 1031.5
20170323172101 33 319 5.0 17.0 0.00 0.00 0.00 28 1031.5
20170323170549 33 23 4.0 11.0 0.00 0.00 0.00 28 1031.7
20170323165047 32 343 8.0 19.0 0.00 0.00 0.00 29 1031.9
20170323163538 32 347 5.0 20.0 0.00 0.00 0.00 29 1032.0
20170323162037 31 359 5.0 16.0 0.00 0.00 0.00 29 1032.2
20170323160531 30 43 7.0 15.0 0.00 0.00 0.00 33 1032.1
20170323155036 30 4 6.0 15.0 0.00 0.00 0.00 31 1032.4
20170323153520 29 18 9.0 20.0 0.00 0.00 0.00 32 1032.4
20170323152016 29 33 9.0 18.0 0.00 0.00 0.00 32 1032.6
20170323150511 28 9 8.0 22.0 0.00 0.00 0.00 32 1032.6
20170323145007 28 11 9.0 19.0 0.00 0.00 0.00 33 1032.7
20170323143507 27 45 11.0 21.0 0.00 0.00 0.00 33 1032.8
20170323142005 26 29 9.0 20.0 0.00 0.00 0.00 34 1032.9
20170323140501 26 291 5.0 19.0 0.00 0.00 0.00 35 1032.8
20170323134932 25 354 6.0 15.0 0.00 0.00 0.00 36 1033.0
20170323133445 24 343 5.0 13.0 0.00 0.00 0.00 37 1033.0
20170323132045 23 33 7.0 15.0 0.00 0.00 0.00 38 1033.0
20170323130437 23 33 6.0 15.0 0.00 0.00 0.00 39 1033.1
20170323124934 22 42 5.0 12.0 0.00 0.00 0.00 39 1032.9
20170323123430 21 4 6.0 13.0 0.00 0.00 0.00 40 1032.8
20170323121924 20 4 3.0 15.0 0.00 0.00 0.00 41 1032.6
20170323120440 19 53 5.0 12.0 0.00 0.00 0.00 42 1032.5
20170323114915 18 359 4.0 8.0 0.00 0.00 0.00 44 1032.5
20170323113410 17 4 3.0 8.0 0.00 0.00 0.00 45 1032.4
20170323111911 16 11 0.0 3.0 0.00 0.00 0.00 48 1032.2
20170323110404 16 16 2.0 4.0 0.00 0.00 0.00 46 1032.0
20170323104902 16 26 2.0 5.0 0.00 0.00 0.00 46 1031.8
20170323103359 16 337 2.0 9.0 0.00 0.00 0.00 46 1031.6
20170323101854 16 21 1.0 5.0 0.00 0.00 0.00 47 1031.3
20170323100352 15 10 1.0 4.0 0.00 0.00 0.00 48 1031.0
20170323094845 16 27 1.0 4.0 0.00 0.00 0.00 47 1030.8
20170323093337 16 359 2.0 5.0 0.00 0.00 0.00 47 1030.6
20170323091845 16 25 2.0 8.0 0.00 0.00 0.00 48 1030.4
20170323090330 15 22 1.0 4.0 0.00 0.00 0.00 51 1030.2
20170323084824 13 260 1.0 2.0 0.00 0.00 0.00 59 1030.0
20170323083332 13 245 0.0 2.0 0.00 0.00 0.00 60 1029.8
20170323081818 13 245 1.0 3.0 0.00 0.00 0.00 58 1029.6
20170323080314 13 314 1.0 3.0 0.00 0.00 0.00 56 1029.6
20170323074814 13 336 0.0 2.0 0.00 0.00 0.00 58 1029.5
20170323073303 14 336 1.0 2.0 0.00 0.00 0.00 54 1029.5
20170323071826 15 337 0.0 6.0 0.00 0.00 0.00 50 1029.3
20170323070454 13 299 0.0 3.0 0.00 0.00 0.00 60 1029.4
20170323064750 13 299 1.0 2.0 0.00 0.00 0.00 60 1029.4
20170323063245 13 299 0.0 2.0 0.00 0.00 0.00 57 1029.2
20170323061743 14 299 1.0 2.0 0.00 0.00 0.00 55 1029.2
20170323060250 14 283 0.0 2.0 0.00 0.00 0.00 53 1029.1
20170323054742 14 283 1.0 2.0 0.00 0.00 0.00 53 1029.1
20170323053238 15 318 1.0 3.0 0.00 0.00 0.00 51 1029.0
20170323051725 15 359 0.0 2.0 0.00 0.00 0.00 48 1028.8
20170323050221 16 354 1.0 2.0 0.00 0.00 0.00 47 1028.9
20170323044722 16 44 2.0 5.0 0.00 0.00 0.00 45 1028.8
20170323043216 16 341 1.0 4.0 0.00 0.00 0.00 46 1028.7
20170323041707 16 26 2.0 5.0 0.00 0.00 0.00 45 1028.6
20170323040202 16 359 1.0 5.0 0.00 0.00 0.00 45 1028.5
20170323034702 16 348 1.0 3.0 0.00 0.00 0.00 46 1028.4
20170323033207 16 4 1.0 5.0 0.00 0.00 0.00 46 1028.4
20170323031652 16 31 2.0 5.0 0.00 0.00 0.00 46 1028.3
20170323030144 16 4 1.0 4.0 0.00 0.00 0.00 47 1028.2
20170323024647 16 36 1.0 6.0 0.00 0.00 0.00 47 1028.2
20170323023139 16 30 3.0 8.0 0.00 0.00 0.00 45 1028.0
20170323021636 16 25 3.0 6.0 0.00 0.00 0.00 46 1027.8
20170323020128 17 44 3.0 7.0 0.00 0.00 0.00 45 1027.4
20170323014626 17 18 3.0 8.0 0.00 0.00 0.00 45 1027.3
20170323013119 17 30 4.0 7.0 0.00 0.00 0.00 46 1027.1
20170323011617 17 22 2.0 5.0 0.00 0.00 0.00 43 1026.9
20170323010113 18 23 3.0 9.0 0.00 0.00 0.00 43 1026.7
20170323004607 18 54 5.0 9.0 0.00 0.00 0.00 42 1026.3
20170323003107 19 15 5.0 11.0 0.00 0.00 0.00 40 1026.1
20170323001558 19 31 5.0 10.0 0.00 0.00 0.00 39 1025.7
20170323000058 20 4 7.0 15.0 0.00 0.00 0.00 37 1025.6
20170322234756 20 10 7.0 15.0 0.00 0.00 0.00 35 1025.2
20170322233046 21 322 7.0 13.0 0.00 0.00 0.00 37 1024.7
20170322231542 21 359 8.0 20.0 0.00 0.00 0.00 36 1024.6
20170322230039 21 305 4.0 20.0 0.00 0.00 0.00 37 1024.1
20170322224534 22 4 6.0 12.0 0.00 0.00 0.00 37 1023.8
20170322223032 22 4 4.0 14.0 0.00 0.00 0.00 36 1023.5
20170322221533 22 4 8.0 16.0 0.00 0.00 0.00 37 1023.3
20170322220023 23 37 7.0 12.0 0.00 0.00 0.00 35 1023.0
20170322214518 23 22 11.0 26.0 0.00 0.00 0.00 35 1022.8
20170322213011 24 35 8.0 18.0 0.00 0.00 0.00 34 1022.4
20170322211513 25 4 4.0 16.0 0.00 0.00 0.00 34 1022.0
20170322210001 25 31 9.0 22.0 0.00 0.00 0.00 33 1021.9
20170322204457 25 16 10.0 23.0 0.00 0.00 0.00 34 1021.3
20170322202956 25 58 4.0 27.0 0.00 0.00 0.00 34 1021.1
20170322201457 25 293 6.0 16.0 0.00 0.00 0.00 35 1021.0